ORBCOMM FM108 [+]

Last updated on July 6, 2021, 3:36 p.m. UTC

1 41187U 15081J   21186.88544803 -.00000036  00000-0  29860-4 0  9993
2 41187  47.0061  54.8784 0001654 203.2668 156.8141 14.54897819296649
UTC
Height (km)
Latitude
Longitude
Inclination
Orbital Period
UTC large
Height (km)
Speed (km/s)
/
Latitude / Longitude
Inclination (degrees)
Orbital Period (minutes)
Azimuth
Elevation
Range (km)
Doppler Factor
iOS Compass Heading
iOS Angle